STARLINK-3111 (49418 NORAD) Tracking and Keplerian Element Data

This shows tracking and keplerian element data for the satellite.

Feedback or suggestion? Click here.




ElementValue
Catalog49418
NameSTARLINK-3111
Epoch Orbit366
Epoch Day15.91668981
Epoch Year2022
RAAN185.3615
Inclination53.2175
Eccentricity0.0001412
Argument of Perigee51.476
Mean Anonmoly331.2677
Mean Motion15.24557507
Decay Rate-0.00655643
L11 49418U 21104L 22015.91668981 -.00655643 00000+0 -28313-1 0 9990
L22 49418 53.2175 185.3615 0001412 51.4760 331.2677 15.24557507 3666

Live tracking and technical data element details for STARLINK-3111 (NORAD 49418). STARLINK-3111 can be tracked NOW for your location showing map with azimuth and elevation plus other details from your city location.

Track the satellite on the map from your city or location and see movement details for azimuth, elevation, latitude, longitude, range, height, and movement on the map or in text.







IsCatalogInMostPopularTable: catalog: 49418, numindb: 5
Update: records affected: 1



GetName: 49418 STARLINK-3111

Hit Count: updated at: Thu, 20 Jan 2022 16:57:27 GMT